Location: Newark
(51.4703°N, 6.8522°E)
Time: 06:26:16
(UTC+00:00)

Envisat - Visible Passes

Search period start: 29 January 2020 00:00
Search period end: 08 February 2020 00:00
Orbit: 764 x 766 km, 98.1° (Epoch: 28 January)

Date Brightness Start Highest point End Pass type
(mag) Time Alt. Az. Time Alt. Az. Time Alt. Az.
29 Jan 5.3 05:23:51 10° NE 05:28:08 26° E 05:32:23 10° SSE visible
29 Jan 3.1 16:43:22 10° SSE 16:48:20 57° ENE 16:53:20 10° N visible
29 Jan 5.4 18:23:38 10° SW 18:27:44 24° W 18:31:50 10° NW visible
30 Jan 6.2 04:48:24 10° NE 04:50:53 14° E 04:53:22 10° ESE visible
30 Jan 3.2 06:25:37 10° NNE 06:30:44 82° ESE 06:35:50 10° SSW visible
30 Jan 4.2 17:45:47 10° S 17:50:39 46° W 17:55:34 10° NNW visible
31 Jan 4.4 05:48:59 10° NNE 05:53:50 42° E 05:58:38 10° SSE visible
31 Jan 3.0 17:08:41 10° SSE 17:13:46 90° WSW 17:18:54 10° NNW visible
31 Jan 6.1 18:50:39 10° WSW 18:53:33 15° W 18:56:27 10° NW visible
01 Feb 5.7 05:12:49 10° NE 05:16:44 22° E 05:20:36 10° SE visible
01 Feb 5.1 18:11:56 10° SSW 18:16:19 29° W 18:20:46 10° NNW visible
02 Feb 6.4 04:38:11 10° ENE 04:39:25 11° E 04:40:38 10° E visible
02 Feb 3.5 06:14:20 10° NNE 06:19:26 68° ESE 06:24:29 10° S visible
02 Feb 3.8 17:34:19 10° S 17:39:19 57° W 17:44:21 10° NNW visible
03 Feb 4.8 05:37:48 10° NNE 05:42:27 34° E 05:47:04 10° SSE visible
03 Feb 3.0 16:57:25 10° SSE 17:02:29 75° ENE 17:07:35 10° NNW visible
03 Feb 5.9 18:38:37 10° SW 18:42:06 18° W 18:45:36 10° NW visible
04 Feb 6.0 05:01:51 10° NE 05:05:18 18° E 05:08:43 10° SE visible
04 Feb 4.8 18:00:18 10° SSW 18:04:56 35° W 18:09:37 10° NNW visible
05 Feb 3.9 06:03:04 10° NNE 06:08:06 55° E 06:13:05 10° S visible
05 Feb 3.4 17:22:55 10° S 17:27:59 70° WSW 17:33:05 10° NNW visible
05 Feb 6.4 19:06:30 10° W 19:07:59 11° W 19:09:27 10° WNW visible
06 Feb 5.2 05:26:41 10° NNE 05:31:05 28° E 05:35:26 10° SSE visible
06 Feb 5.6 18:26:44 10° SW 18:30:40 22° W 18:34:38 10° NW visible
07 Feb 6.2 04:51:02 10° NE 04:53:50 15° E 04:56:38 10° ESE visible
07 Feb 4.4 17:48:45 10° S 17:53:34 43° W 17:58:26 10° NNW visible
